Weather History for KBWI - October, 2014

Change the Weather History Date:

Friday, October 24, 2014

  Actual Average Record
Temperature  
Mean Temperature 58 °F 53 °F  
Max Temperature 68 °F 64 °F 82 °F (2001)
Min Temperature 48 °F 43 °F 25 °F (1969)
Degree Days  
Heating Degree Days 7 12  
Month to date heating degree days 152 204  
Since 1 July heating degree days 189 257  
Cooling Degree Days 0 0  
Month to date cooling degree days 12 15  
Year to date cooling degree days 1084 1160  
Growing Degree Days 10 (Base 50)    
Moisture  
Dew Point 39 °F    
Average Humidity 51    
Maximum Humidity 71    
Minimum Humidity 30    
Precipitation  
Precipitation 0.00 in 0.10 in 1.43 in (1926)
Month to date precipitation 4.11 2.58  
Year to date precipitation 45.59 34.46  
Snow  
Snow 0.00 in 0.00 in - ()
Month to date snowfall 0.0 0.0  
Since 1 July snowfall 0.0 0.0  
Snow Depth 0.00 in    
Sea Level Pressure  
Sea Level Pressure 29.91 in    
Wind  
Wind Speed 10 mph (WNW)    
Max Wind Speed 22 mph    
Max Gust Speed 28 mph    
Visibility 10 miles    
Events      
T = Trace of Precipitation, MM = Missing Value Source: NWS Daily Summary

Daily Weather History Graph

Daily Weather History Graph

Search for Another Location

Airport or City:

Trip Planner

Search our weather history database for the weather conditions in past years. The results will help you decide how hot, cold, wet, or windy it might be!

Date:

Astronomy

Oct. 24, 2014 Rise Set
Actual Time 7:25 AM EDT 6:15 PM EDT
Civil Twilight 6:58 AM EDT 6:42 PM EDT
Nautical Twilight 6:27 AM EDT 7:14 PM EDT
Astronomical Twilight 5:56 AM EDT 7:45 PM EDT
Moon 8:02 AM EDT (10/24) 6:54 PM EDT (10/24)
Length of Visible Light 11h 44m
Length of Day
10h 49m
New Moon, 1% of the Moon is Illuminated
Oct 24
New Moon
Oct 30
First Quarter
Nov 6
Full
Nov 14
Last Quarter
Nov 22
New

Hourly Weather History & Observations

Time (EDT) Temp. Dew Point Humidity Pressure Visibility Wind Dir Wind Speed Gust Speed Precip Events Conditions
12:54 AM 54.0 °F 42.1 °F 64% 29.88 in 10.0 mi WNW 10.4 mph - N/A   Partly Cloudy
1:54 AM 55.0 °F 39.9 °F 57% 29.88 in 10.0 mi WNW 9.2 mph - N/A   Partly Cloudy
2:54 AM 54.0 °F 39.9 °F 59% 29.88 in 10.0 mi West 11.5 mph - N/A   Partly Cloudy
3:54 AM 54.0 °F 41.0 °F 62% 29.89 in 10.0 mi WNW 10.4 mph - N/A   Partly Cloudy
4:54 AM 54.0 °F 42.1 °F 64% 29.89 in 10.0 mi WNW 6.9 mph - N/A   Partly Cloudy
5:54 AM 53.1 °F 42.1 °F 66% 29.92 in 10.0 mi West 3.5 mph - N/A   Partly Cloudy
6:54 AM 53.1 °F 43.0 °F 69% 29.92 in 10.0 mi WNW 9.2 mph - N/A   Partly Cloudy
7:54 AM 52.0 °F 43.0 °F 71% 29.94 in 10.0 mi West 5.8 mph - N/A   Scattered Clouds
8:54 AM 55.9 °F 43.0 °F 62% 29.95 in 10.0 mi West 9.2 mph 17.3 mph N/A   Scattered Clouds
9:54 AM 59.0 °F 42.1 °F 53% 29.95 in 10.0 mi NW 19.6 mph 27.6 mph N/A   Scattered Clouds
2:54 PM 66.9 °F 41.0 °F 39% 29.87 in 10.0 mi WNW 17.3 mph 21.9 mph N/A   Mostly Cloudy
3:54 PM 68.0 °F 36.0 °F 31% 29.87 in 10.0 mi WNW 13.8 mph 20.7 mph N/A   Scattered Clouds
4:54 PM 66.9 °F 36.0 °F 32% 29.87 in 10.0 mi WNW 6.9 mph - N/A   Mostly Cloudy
5:54 PM 64.0 °F 36.0 °F 35% 29.88 in 10.0 mi WNW 9.2 mph 17.3 mph N/A   Mostly Cloudy
6:54 PM 60.1 °F 35.1 °F 39% 29.90 in 10.0 mi WNW 3.5 mph - N/A   Mostly Cloudy
7:54 PM 53.1 °F 37.9 °F 57% 29.91 in 10.0 mi West 6.9 mph - N/A   Mostly Cloudy
8:54 PM 53.1 °F 37.0 °F 55% 29.92 in 10.0 mi West 10.4 mph - N/A   Mostly Cloudy
9:54 PM 55.9 °F 36.0 °F 47% 29.93 in 10.0 mi WNW 6.9 mph - N/A   Scattered Clouds
10:54 PM 53.1 °F 36.0 °F 52% 29.93 in 10.0 mi West 5.8 mph - N/A   Scattered Clouds
11:54 PM 50.0 °F 37.0 °F 61% 29.94 in 10.0 mi West 6.9 mph - N/A   Scattered Clouds